Phuket, Thailand

12:35 PM ICT on September 28, 2016 (GMT +0700)
Phuket International

Weather History for VTSP - October, 2011

Change the Weather History Date:

Saturday, October 8, 2011

  Actual Average Record
Temperature  
Mean Temperature 79 °F -  
Max Temperature 83 °F 87 °F 91 °F (2002)
Min Temperature 75 °F 76 °F 72 °F (2015)
Cooling Degree Days 14    
Growing Degree Days 29 (Base 50)    
Moisture  
Dew Point 74 °F    
Average Humidity 86    
Maximum Humidity 94    
Minimum Humidity 78    
Precipitation  
Precipitation 0.79 in - - ()
Sea Level Pressure  
Sea Level Pressure 29.86 in    
Wind  
Wind Speed 4 mph ()    
Max Wind Speed 12 mph    
Max Gust Speed 21 mph    
Visibility 4.6 miles    
Events Rain    
Averages and records for this station are not official NWS values.
T = Trace of Precipitation, MM = Missing Value Source: Averaged Metar Reports

Daily Weather History Graph

Daily Weather History Graph

Search for Another Location

Airport or City:

Trip Planner

Search our weather history database for the weather conditions in past years. The results will help you decide how hot, cold, wet, or windy it might be!

Date:

Astronomy

Oct. 08, 2011 Rise Set
Actual Time 6:14 AM ICT 6:14 PM ICT
Civil Twilight 5:53 AM ICT 6:35 PM ICT
Nautical Twilight 5:29 AM ICT 6:59 PM ICT
Astronomical Twilight 5:04 AM ICT 7:23 PM ICT
Moon 3:39 PM ICT (10/8) 3:09 AM ICT (10/8)
Length of Visible Light 12h 41m
Length of Day
12h 00m
Waxing Gibbous, 87% of the Moon is Illuminated
Oct 8
Waxing Gibbous
Oct 12
Full
Oct 20
Last Quarter
Oct 27
New
Nov 2
First Quarter

Hourly Weather History & Observations

Time (ICT) Temp. Heat Index Dew Point Humidity Pressure Visibility Wind Dir Wind Speed Gust Speed Precip Events Conditions
12:00 AM 80.6 °F 85.4 °F 73.4 °F 79% 29.89 in 5.0 mi WNW 8.1 mph - N/A   Scattered Clouds
12:30 AM 80.6 °F 86.2 °F 75.2 °F 84% 29.89 in 5.0 mi West 6.9 mph - N/A   Scattered Clouds
1:00 AM 82 °F - 76 °F 78% 29.86 in 6 mi NW 5.8 mph - -   Scattered Clouds
1:00 AM 80.6 °F 85.4 °F 73.4 °F 79% 29.89 in 5.0 mi WNW 6.9 mph - N/A   Scattered Clouds
1:30 AM 78.8 °F - 73.4 °F 83% 29.86 in 5.0 mi WNW 5.8 mph - N/A   Scattered Clouds
2:00 AM 78.8 °F - 73.4 °F 83% 29.86 in 5.0 mi Variable 2.3 mph - N/A   Scattered Clouds
2:30 AM 78.8 °F - 73.4 °F 83% 29.86 in 5.0 mi WNW 4.6 mph - N/A   Scattered Clouds
3:00 AM 78.8 °F - 73.4 °F 83% 29.83 in 5.0 mi WNW 3.5 mph - N/A   Scattered Clouds
3:30 AM 78.8 °F - 73.4 °F 83% 29.83 in 5.0 mi WNW 4.6 mph - N/A   Scattered Clouds
4:00 AM 77.0 °F - 73.4 °F 89% 29.83 in 5.0 mi Calm Calm - N/A   Scattered Clouds
4:30 AM 77.0 °F - 73.4 °F 89% 29.83 in 5.0 mi Calm Calm - N/A   Scattered Clouds
5:00 AM 77.0 °F - 73.4 °F 89% 29.83 in 5.0 mi Calm Calm - N/A   Scattered Clouds
5:30 AM 77.0 °F - 73.4 °F 89% 29.83 in 5.0 mi Calm Calm - N/A   Mostly Cloudy
6:00 AM 77.0 °F - 73.4 °F 89% 29.83 in 5.0 mi Calm Calm - N/A   Mostly Cloudy
6:30 AM 77.0 °F - 73.4 °F 89% 29.83 in 5.0 mi Calm Calm - N/A   Mostly Cloudy
7:00 AM 78 °F - 75 °F 88% 29.82 in 6 mi Calm Calm - -   Scattered Clouds
7:00 AM 77.0 °F - 75.2 °F 94% 29.86 in 6.2 mi Calm Calm - N/A   Mostly Cloudy
7:30 AM 78.8 °F - 75.2 °F 89% 29.86 in 6.2 mi Calm Calm - N/A   Mostly Cloudy
8:00 AM 80.6 °F 85.4 °F 73.4 °F 79% 29.89 in 3.1 mi West 11.5 mph - N/A Rain Rain
8:30 AM 77.0 °F - 73.4 °F 89% 29.89 in 4.3 mi WSW 9.2 mph - N/A Rain Light Rain
9:00 AM 77.0 °F - 73.4 °F 89% 29.89 in 4.3 mi Variable 2.3 mph - N/A Rain Light Rain
9:30 AM 77.0 °F - 73.4 °F 89% 29.92 in 3.1 mi Variable 1.2 mph - N/A Rain Rain
10:00 AM 78.8 °F - 75.2 °F 89% 29.92 in 4.3 mi Calm Calm - N/A Rain Light Rain
10:30 AM 77.0 °F - 75.2 °F 94% 29.92 in 4.3 mi Variable 1.2 mph - N/A Rain Light Rain
11:00 AM 78.8 °F - 75.2 °F 89% 29.92 in 4.3 mi Calm Calm - N/A Rain Light Rain
11:30 AM 80.6 °F 86.2 °F 75.2 °F 84% 29.92 in 1.9 mi WSW 5.8 mph - N/A Rain Rain
12:00 PM 77.0 °F - 73.4 °F 89% 29.89 in 1.9 mi WSW 8.1 mph - N/A Rain Rain
12:30 PM 77.0 °F - 73.4 °F 89% 29.89 in 3.1 mi Variable 1.2 mph - N/A Rain Rain
1:00 PM 80 °F - 77 °F 89% 29.85 in 3 mi Calm Calm - - Rain Light Rain
1:00 PM 78.8 °F - 75.2 °F 89% 29.86 in 3.1 mi Variable 3.5 mph - N/A Rain Rain
1:30 PM 78.8 °F - 75.2 °F 89% 29.86 in 1.2 mi WSW 5.8 mph - N/A Rain Rain
2:00 PM 78.8 °F - 77.0 °F 94% 29.83 in 4.3 mi Variable 2.3 mph - N/A Rain Light Rain
2:30 PM 78.8 °F - 73.4 °F 83% 29.83 in 1.2 mi Variable 8.1 mph 20.7 mph N/A Rain Rain
3:00 PM 77.0 °F - 71.6 °F 83% 29.80 in 4.3 mi Variable 4.6 mph - N/A   Mostly Cloudy
3:30 PM 78.8 °F - 73.4 °F 83% 29.80 in 4.3 mi Variable 5.8 mph - N/A Rain Light Rain
4:00 PM 80.6 °F 86.2 °F 75.2 °F 84% 29.80 in 4.3 mi West 10.4 mph - N/A   Mostly Cloudy
4:30 PM 80.6 °F 86.2 °F 75.2 °F 84% 29.80 in 4.3 mi WSW 4.6 mph - N/A   Mostly Cloudy
5:00 PM 78.8 °F - 73.4 °F 83% 29.80 in 4.3 mi WSW 10.4 mph - N/A   Mostly Cloudy
5:30 PM 78.8 °F - 73.4 °F 83% 29.80 in 5.0 mi Variable 4.6 mph - N/A   Mostly Cloudy
6:00 PM 78.8 °F - 73.4 °F 83% 29.80 in 5.0 mi West 6.9 mph - N/A   Mostly Cloudy
6:30 PM 78.8 °F - 73.4 °F 83% 29.83 in 5.0 mi West 8.1 mph - N/A   Mostly Cloudy
7:00 PM 80 °F - 75 °F 81% 29.80 in 6 mi West 3.5 mph - -   Partly Cloudy
7:00 PM 78.8 °F - 73.4 °F 83% 29.83 in 5.0 mi Variable 3.5 mph - N/A   Mostly Cloudy
7:30 PM 77.0 °F - 73.4 °F 89% 29.83 in 5.0 mi Variable 1.2 mph - N/A   Mostly Cloudy
8:00 PM 77.0 °F - 73.4 °F 89% 29.86 in 5.0 mi Variable 1.2 mph - N/A   Mostly Cloudy
8:30 PM 78.8 °F - 73.4 °F 83% 29.86 in 5.6 mi Calm Calm - N/A   Mostly Cloudy
9:00 PM 78.8 °F - 75.2 °F 89% 29.86 in 5.6 mi WSW 5.8 mph - N/A   Mostly Cloudy
9:30 PM 78.8 °F - 75.2 °F 89% 29.86 in 6.2 mi Calm Calm - N/A   Mostly Cloudy
10:00 PM 78.8 °F - 75.2 °F 89% 29.89 in 6.2 mi West 3.5 mph - N/A   Mostly Cloudy
10:30 PM 78.8 °F - 75.2 °F 89% 29.89 in 6.2 mi Calm Calm - N/A   Mostly Cloudy
11:00 PM 78.8 °F - 71.6 °F 78% 29.89 in 3.7 mi WSW 3.5 mph - N/A Rain Rain
11:30 PM 77.0 °F - 73.4 °F 89% 29.89 in 5.0 mi Calm Calm - N/A   Mostly Cloudy